Sunday, December 17, 2017, 10:19 PM EST
Back to Local

KBDR, Sikorsky Memorial Airport

Location: Stratford, CT, United States Lat: 41.167
Local Time: 10:19 PM EST ( 3:19 GMT) Lon: -73.133
Time Zone: US/Eastern Elev: 9 ft

Show me the last for .
Show Coded

Time T Td Feel RH Dir Speed Gust Alt SLP Vis Weather Sky Remarks
2017-12-17 21:52 32 15 27 49 50° 5 - 30.25 30.25 10 SCT120 None
2017-12-17 20:52 32 14 27 46 30° 5 - 30.27 30.27 10 SCT120 None
2017-12-17 19:52 32 20 - 60 - Calm - 30.28 30.28 10 SCT055 None
2017-12-17 18:52 31 20 - 63 - Calm - 30.27 30.27 10 SCT100 6-hr Min Temp (7pm): 30.9°F
6-hr Max Temp (7pm): 33.1°F
2017-12-17 17:52 32 18 29 55 10° 3 - 30.26 30.26 10 CLR None
2017-12-17 16:52 32 18 - 55 - Calm - 30.26 30.26 10 CLR None
2017-12-17 15:52 33 18 - 53 - Calm - 30.25 30.25 10 CLR None
2017-12-17 14:52 33 18 29 53 290° 5 - 30.25 30.25 10 OVC060 None
2017-12-17 13:52 32 17 26 53 310° 6 - 30.24 30.24 10 OVC060 None
2017-12-17 12:52 31 17 27 55 310° 3 - 30.27 30.27 10 FEW038 OVC055 6-hr Min Temp (1pm): 24.1°F
6-hr Max Temp (1pm): 30.9°F
2017-12-17 11:52 30 16 24 55 280° 6 - 30.29 30.29 10 BKN030 OVC060 None
2017-12-17 10:52 29 15 22 55 290° 7 - 30.30 30.30 10 FEW034 OVC060 None
2017-12-17 09:52 29 15 - 55 - Calm - 30.31 30.31 10 OVC065 None
2017-12-17 08:52 27 14 - 57 - Calm - 30.30 30.30 10 CLR None
2017-12-17 07:52 25 15 - 65 - Calm - 30.30 30.29 10 CLR None
2017-12-17 06:52 24 14 20 64 20° 3 - 30.28 30.27 10 CLR 6-hr Min Temp (7am): 24.1°F
6-hr Max Temp (7am): 28.0°F
2017-12-17 05:52 27 14 19 57 10° 7 - 30.28 30.27 10 OVC050 None
2017-12-17 04:52 28 14 23 55 350° 5 - 30.28 30.28 10 OVC050 None
2017-12-17 03:52 28 14 23 55 340° 5 - 30.27 30.27 10 OVC050 None
2017-12-17 02:52 28 14 23 55 350° 5 - 30.26 30.25 10 OVC055 None
2017-12-17 01:52 27 14 22 57 360° 5 - 30.24 30.24 10 SCT055 None
2017-12-17 00:52 28 15 22 57 350° 6 - 30.22 30.22 10 CLR 6-hr Min Temp (1am): 28.0°F
6-hr Max Temp (1am): 36.0°F
2017-12-16 23:52 29 16 23 57 350° 6 - 30.21 30.21 10 CLR 24-hr Min Temp (12am): 19.9°F
24-hr Max Temp (12am): 37.0°F
2017-12-16 22:52 31 18 23 58 360° 9 - 30.21 30.20 10 OVC065 None

Support USWX by starting your Amazon purchase here.